When you browse on this site, cookies collect data to enhance your experience and personalize the content and advertising you see.
Visit our Privacy Policy to learn more. By continuing to use the site, you agree to this use of cookies and data.
  • In Hungary
  • List of Countries
  • For 7 days
  • Water Temperature
  • Weather Map
  • News
  • Weather Widgets
  • user-avatar
    Login

    Hourly Weather Sulak

    Today, 18 October, Friday

    Time Temperature Precipitation Wind Pressure Humidity
    00:00 +8°C° 0 mm 6 mps 745 mmHg 77%
    01:00 +8°C° 0 mm 5 mps 745 mmHg 79%
    02:00 +7°C° 0 mm 5 mps 744 mmHg 81%
    03:00 +7°C° 0 mm 5 mps 744 mmHg 84%
    04:00 +7°C° 0 mm 5 mps 744 mmHg 86%
    05:00 +7°C° 0 mm 5 mps 744 mmHg 88%
    06:00 +7°C° 0 mm 5 mps 743 mmHg 89%
    07:00 +8°C° 0 mm 5 mps 743 mmHg 88%
    08:00 +8°C° 0 mm 5 mps 743 mmHg 86%
    09:00 +9°C° 0 mm 5 mps 743 mmHg 85%
    10:00 +10°C° 0 mm 5 mps 743 mmHg 81%
    11:00 +13°C° 0 mm 4 mps 743 mmHg 77%
    12:00 +14°C° 0 mm 4 mps 743 mmHg 74%
    13:00 +14°C° 0 mm 4 mps 743 mmHg 72%
    14:00 +15°C° 0 mm 4 mps 743 mmHg 71%
    15:00 +15°C° 0 mm 4 mps 743 mmHg 69%
    16:00 +14°C° 0 mm 4 mps 743 mmHg 73%
    17:00 +13°C° 0 mm 3 mps 743 mmHg 77%
    18:00 +13°C° 0 mm 2 mps 743 mmHg 81%
    19:00 +13°C° 0 mm 2 mps 743 mmHg 84%
    20:00 +12°C° 0 mm 2 mps 744 mmHg 86%
    21:00 +12°C° 0 mm 2 mps 744 mmHg 88%
    22:00 +10°C° 0 mm 2 mps 744 mmHg 90%
    23:00 +10°C° 0 mm 2 mps 744 mmHg 91%

    Tomorrow, 19 October, Saturday

    Time Temperature Precipitation Wind Pressure Humidity
    00:00 +9°C° 0 mm 2 mps 744 mmHg 92%
    01:00 +9°C° 0 mm 2 mps 744 mmHg 93%
    02:00 +8°C° 0 mm 2 mps 745 mmHg 94%
    03:00 +8°C° 0 mm 2 mps 745 mmHg 95%
    04:00 +8°C° 0 mm 2 mps 745 mmHg 95%
    05:00 +7°C° 0 mm 2 mps 745 mmHg 95%
    06:00 +7°C° 0 mm 2 mps 746 mmHg 95%
    07:00 +8°C° 0 mm 2 mps 746 mmHg 91%
    08:00 +8°C° 0 mm 2 mps 746 mmHg 87%
    09:00 +9°C° 0 mm 2 mps 747 mmHg 84%
    10:00 +10°C° 0 mm 2 mps 747 mmHg 81%
    11:00 +12°C° 0 mm 2 mps 747 mmHg 78%
    12:00 +11°C° 0 mm 3 mps 747 mmHg 75%
    13:00 +12°C° 0 mm 2 mps 747 mmHg 76%
    14:00 +12°C° 0 mm 2 mps 748 mmHg 76%
    15:00 +12°C° 0 mm 2 mps 748 mmHg 76%
    16:00 +12°C° 0 mm 2 mps 748 mmHg 78%
    17:00 +10°C° 0 mm 2 mps 748 mmHg 79%
    18:00 +10°C° 0 mm 2 mps 748 mmHg 80%
    19:00 +10°C° 0 mm 2 mps 749 mmHg 80%
    20:00 +9°C° 0 mm 2 mps 749 mmHg 80%
    21:00 +9°C° 0 mm 2 mps 749 mmHg 80%
    22:00 +10°C° 0 mm 1 mps 749 mmHg 82%
    23:00 +9°C° 0 mm 1 mps 750 mmHg 84%

    Day after tomorrow, 20 October, Sunday

    Time Temperature Precipitation Wind Pressure Humidity
    00:00 +8°C° 0 mm 1 mps 750 mmHg 87%
    01:00 +8°C° 0 mm 1 mps 750 mmHg 88%
    02:00 +8°C° 0 mm 1 mps 750 mmHg 88%
    03:00 +8°C° 0 mm 1 mps 750 mmHg 89%
    04:00 +7°C° 0 mm 1 mps 750 mmHg 90%
    05:00 +7°C° 0 mm 1 mps 750 mmHg 91%
    06:00 +7°C° 0 mm 1 mps 750 mmHg 91%
    07:00 +8°C° 0 mm 1 mps 750 mmHg 88%
    08:00 +8°C° 0 mm 2 mps 751 mmHg 86%
    09:00 +9°C° 0 mm 2 mps 751 mmHg 83%
    10:00 +10°C° 0 mm 2 mps 751 mmHg 77%
    11:00 +12°C° 0 mm 2 mps 751 mmHg 72%
    12:00 +12°C° 0 mm 3 mps 751 mmHg 66%
    13:00 +13°C° 0 mm 3 mps 751 mmHg 65%
    14:00 +13°C° 0 mm 3 mps 751 mmHg 65%
    15:00 +13°C° 0 mm 3 mps 750 mmHg 64%
    16:00 +12°C° 0 mm 3 mps 750 mmHg 69%
    17:00 +12°C° 0 mm 2 mps 750 mmHg 74%
    18:00 +10°C° 0 mm 2 mps 750 mmHg 79%
    19:00 +10°C° 0 mm 2 mps 750 mmHg 80%
    20:00 +10°C° 0 mm 3 mps 750 mmHg 81%
    21:00 +9°C° 0 mm 3 mps 750 mmHg 83%
    22:00 +9°C° 0 mm 3 mps 750 mmHg 84%
    23:00 +9°C° 0 mm 3 mps 750 mmHg 85%

    21 October, Monday

    Time Temperature Precipitation Wind Pressure Humidity
    00:00 +9°C° 0 mm 3 mps 750 mmHg 86%
    01:00 +8°C° 0 mm 3 mps 750 mmHg 87%
    02:00 +8°C° 0 mm 3 mps 750 mmHg 88%
    03:00 +8°C° 0 mm 3 mps 750 mmHg 89%
    04:00 +8°C° 0 mm 3 mps 750 mmHg 90%
    05:00 +8°C° 0 mm 3 mps 750 mmHg 90%
    06:00 +7°C° 0 mm 3 mps 750 mmHg 91%
    07:00 +8°C° 0 mm 3 mps 750 mmHg 88%
    08:00 +9°C° 0 mm 3 mps 750 mmHg 86%
    09:00 +10°C° 0 mm 4 mps 750 mmHg 83%
    10:00 +11°C° 0 mm 4 mps 750 mmHg 80%
    11:00 +12°C° 0 mm 4 mps 749 mmHg 76%
    12:00 +13°C° 0 mm 4 mps 749 mmHg 73%
    13:00 +14°C° 0 mm 4 mps 749 mmHg 71%
    14:00 +14°C° 0 mm 4 mps 749 mmHg 70%
    15:00 +15°C° 0 mm 4 mps 748 mmHg 68%
    16:00 +14°C° 0 mm 4 mps 748 mmHg 73%
    17:00 +13°C° 0 mm 4 mps 748 mmHg 78%
    18:00 +11°C° 0 mm 4 mps 748 mmHg 83%
    19:00 +11°C° 0 mm 4 mps 748 mmHg 84%
    20:00 +11°C° 0 mm 4 mps 748 mmHg 84%
    21:00 +11°C° 0 mm 4 mps 747 mmHg 85%
    22:00 +10°C° 0 mm 4 mps 747 mmHg 85%
    23:00 +10°C° 0 mm 4 mps 747 mmHg 85%

    22 October, Tuesday

    Time Temperature Precipitation Wind Pressure Humidity
    00:00 +9°C° 0 mm 5 mps 747 mmHg 85%
    01:00 +9°C° 0 mm 5 mps 746 mmHg 84%
    02:00 +8°C° 0 mm 5 mps 746 mmHg 84%
    03:00 +8°C° 0 mm 5 mps 746 mmHg 84%
    04:00 +8°C° 0 mm 5 mps 745 mmHg 84%
    05:00 +8°C° 0 mm 5 mps 745 mmHg 85%
    06:00 +8°C° 0 mm 5 mps 745 mmHg 85%
    07:00 +8°C° 0 mm 6 mps 744 mmHg 82%
    08:00 +9°C° 0 mm 6 mps 744 mmHg 80%
    09:00 +10°C° 0 mm 7 mps 744 mmHg 77%
    10:00 +11°C° 0 mm 7 mps 743 mmHg 72%
    11:00 +12°C° 0 mm 7 mps 743 mmHg 67%
    12:00 +15°C° 0 mm 8 mps 742 mmHg 62%
    13:00 +15°C° 0 mm 8 mps 742 mmHg 60%
    14:00 +15°C° 0 mm 8 mps 741 mmHg 59%
    15:00 +16°C° 0 mm 8 mps 741 mmHg 58%
    16:00 +15°C° 0 mm 8 mps 740 mmHg 60%
    17:00 +13°C° 0 mm 8 mps 740 mmHg 62%
    18:00 +14°C° 0 mm 7 mps 740 mmHg 63%
    19:00 +14°C° 0 mm 7 mps 740 mmHg 68%
    20:00 +12°C° 0 mm 7 mps 740 mmHg 73%
    21:00 +13°C° 0 mm 6 mps 740 mmHg 77%
    22:00 +13°C° 0 mm 6 mps 740 mmHg 78%
    23:00 +11°C° 0 mm 6 mps 740 mmHg 79%

    23 October, Wednesday

    Time Temperature Precipitation Wind Pressure Humidity
    00:00 +10°C° 0 mm 6 mps 741 mmHg 79%
    01:00 +9°C° 0 mm 6 mps 742 mmHg 79%
    02:00 +8°C° 0 mm 6 mps 742 mmHg 78%
    03:00 +7°C° 0 mm 5 mps 743 mmHg 78%
    04:00 +6°C° 0 mm 5 mps 744 mmHg 80%
    05:00 +5°C° 0 mm 5 mps 745 mmHg 83%
    06:00 +5°C° 0 mm 5 mps 745 mmHg 85%
    07:00 +5°C° 0 mm 5 mps 746 mmHg 81%
    08:00 +5°C° 0 mm 4 mps 746 mmHg 76%
    09:00 +6°C° 0 mm 4 mps 747 mmHg 72%
    10:00 +6°C° 0 mm 4 mps 748 mmHg 69%
    11:00 +6°C° 0 mm 4 mps 748 mmHg 66%
    12:00 +7°C° 0 mm 4 mps 748 mmHg 63%
    13:00 +7°C° 0 mm 4 mps 749 mmHg 61%
    14:00 +8°C° 0 mm 3 mps 749 mmHg 59%
    15:00 +8°C° 0 mm 3 mps 749 mmHg 57%
    16:00 +7°C° 0 mm 3 mps 749 mmHg 60%
    17:00 +6°C° 0 mm 2 mps 749 mmHg 64%
    18:00 +6°C° 0 mm 1 mps 749 mmHg 68%
    19:00 +6°C° 0 mm 1 mps 750 mmHg 70%
    20:00 +5°C° 0 mm 1 mps 750 mmHg 72%
    21:00 +4°C° 0 mm 0 mps 750 mmHg 74%
    22:00 +4°C° 0 mm 0 mps 750 mmHg 75%
    23:00 +4°C° 0 mm 0 mps 750 mmHg 76%
    Show more